Wind_Speed
34 34 34 34 35 35 34 34 33 32 31 31 30 29 29 29 28 28 27 26 25 24 23 22 22 22 23 23 24 24 24 24 25 26 27 29 30 30 30 30 30 29 29 28 28 27 27 26 25 24 25 26 26 26 26 26 25 24 24 25 25 25 25 25 24 23 24 25 26 28 27 27 28 27 28 27 28 28 28 28 28 29 29 29 28 28 28 26
33 33 33 33 33 33 33 32 31 30 30 29 28 27 27 26 26 26 25 24 24 23 22 22 22 22 22 23 23 23 23 24 25 26 28 29 29 29 29 29 28 28 27 26 26 26 26 25 24 25 26 26 26 26 26 26 26 25 24 25 25 25 26 25 24 24 26 27 27 29 29 29 30 29 28 28 29 29 29 30 30 30 29 29 28 28 28 26
33 33 32 32 32 32 31 30 29 29 28 27 26 26 25 25 24 24 24 23 23 22 22 22 22 22 22 22 21 21 22 24 26 27 27 28 28 28 28 27 27 26 25 25 25 25 25 25 25 25 26 26 27 27 26 26 27 26 26 25 25 25 26 26 25 25 26 26 26 30 31 32 32 30 28 28 29 30 31 31 30 30 30 30 29 29 30 29
32 32 32 32 32 31 30 30 29 28 27 26 26 25 24 23 23 23 23 22 22 21 21 21 21 21 21 20 20 21 23 24 26 27 27 27 27 27 26 26 25 24 24 24 24 25 25 25 25 26 27 27 27 27 27 27 27 27 27 26 26 25 25 26 27 27 26 27 29 31 33 33 33 30 29 29 30 32 32 32 31 31 31 30 30 31 32 33
32 32 31 31 31 31 30 29 29 28 27 27 26 25 24 23 22 22 22 21 21 21 20 20 20 20 19 19 20 22 23 25 26 26 26 26 25 25 24 24 23 23 23 23 24 24 24 25 26 27 27 28 28 28 27 27 28 27 27 27 26 25 25 26 28 29 28 28 31 33 34 34 33 31 30 30 32 33 34 33 32 32 32 32 32 32 34 36
31 31 31 31 31 30 29 29 28 28 28 27 26 25 24 23 22 22 21 20 20 20 19 19 19 19 19 19 20 22 23 25 25 25 25 24 24 23 22 22 22 22 22 22 23 24 25 26 27 28 28 28 28 28 28 28 28 28 27 27 26 25 25 26 28 30 29 29 31 34 35 34 33 32 31 31 33 35 35 36 35 35 34 34 34 34 35 37
31 31 31 31 31 30 29 28 28 27 27 27 26 26 25 23 22 21 20 20 19 19 19 18 18 18 18 19 21 22 23 24 24 24 23 23 22 21 21 21 21 21 21 22 22 24 25 26 28 28 28 28 28 28 28 29 28 28 27 26 25 25 25 26 28 30 30 30 31 33 35 35 33 33 33 33 34 36 37 38 38 38 37 36 35 35 35 36
32 32 32 32 31 30 29 29 28 27 27 26 26 26 25 24 23 22 21 20 19 19 18 18 18 18 18 19 21 22 23 23 23 23 23 22 21 21 21 20 21 21 21 21 22 24 25 27 28 29 28 27 28 29 29 29 28 28 27 25 25 24 25 27 28 30 32 32 31 33 35 36 35 34 34 35 36 36 38 39 40 40 40 39 37 37 36 36
32 33 33 32 32 31 30 30 29 29 28 27 26 26 26 25 23 22 21 21 20 19 18 18 18 18 18 20 21 22 23 22 22 23 22 22 21 21 21 20 21 21 20 21 22 24 26 28 29 29 28 27 28 29 29 28 27 27 26 25 24 24 25 26 28 30 33 33 33 33 36 37 37 36 36 37 37 38 39 40 41 41 41 40 39 38 37 36
32 33 33 33 33 32 32 32 32 31 31 29 28 27 26 26 24 22 22 21 20 19 18 18 17 18 18 20 21 22 22 22 22 22 22 21 21 21 21 21 21 21 21 21 22 24 27 29 29 29 28 28 29 30 29 28 27 26 25 24 23 23 23 24 26 30 33 34 35 35 36 38 38 38 38 38 39 40 40 41 41 41 40 39 39 38 37 37
33 34 34 34 34 34 34 34 34 34 33 32 30 28 27 26 25 23 22 21 20 19 18 18 18 18 19 20 21 22 22 22 22 22 22 22 22 22 22 22 22 22 21 21 22 25 28 29 30 30 30 30 30 30 29 28 27 25 24 23 22 22 22 23 26 29 32 36 37 37 38 38 39 40 40 40 41 42 42 41 40 39 37 37 38 38 37 37
33 34 35 36 36 36 37 37 37 37 36 35 33 30 28 27 26 24 22 21 21 20 19 18 18 18 19 20 21 21 21 22 22 22 22 22 22 22 23 23 22 22 21 21 23 25 28 30 31 30 31 31 31 30 29 29 27 24 21 20 20 21 21 22 25 28 32 36 38 38 38 37 39 41 42 42 43 43 43 42 40 38 36 35 36 37 37 37
34 35 36 37 37 37 37 36 36 36 36 35 34 32 30 29 27 25 22 21 20 20 19 19 19 19 19 20 21 21 21 21 22 22 23 23 23 23 23 23 22 21 20 21 23 25 27 30 31 31 32 32 32 31 30 29 26 23 19 18 19 19 20 21 25 29 32 35 37 37 37 37 38 41 43 45 45 45 44 43 41 38 36 34 34 35 36 37
33 34 34 34 34 33 32 32 32 31 31 31 31 31 31 30 28 26 23 21 20 20 19 19 19 19 20 20 21 21 21 22 22 23 23 23 23 23 24 23 22 20 20 21 23 25 27 30 31 32 33 33 33 32 31 29 26 21 17 16 17 16 16 19 24 27 30 34 36 36 37 36 38 41 44 46 47 47 45 44 42 39 36 34 33 33 34 36
27 28 29 30 31 31 31 31 31 31 29 28 27 27 27 28 28 26 24 22 20 19 19 19 19 20 20 21 21 21 21 22 23 23 23 23 23 24 23 23 22 20 20 21 22 24 26 29 31 32 33 34 33 33 32 31 28 23 16 15 18 14 12 17 22 25 28 32 34 35 36 35 38 42 44 47 49 48 47 44 41 38 36 35 34 33 34 35
23 25 28 31 33 33 34 33 33 32 30 28 26 24 24 24 25 25 23 22 20 19 19 19 19 20 20 21 21 22 22 23 23 24 24 24 24 24 24 23 22 20 20 20 22 23 25 28 29 31 33 34 35 34 33 31 29 25 16 14 17 14 13 16 20 23 27 30 32 33 34 34 38 43 44 46 47 47 46 43 39 38 37 36 35 35 34 34
23 26 29 31 32 32 31 30 30 30 29 27 26 24 22 22 23 23 22 21 20 19 19 19 19 20 21 22 22 23 24 24 25 25 25 25 25 24 24 23 22 20 19 20 21 22 24 27 28 29 31 33 35 35 33 31 29 25 18 12 12 13 14 14 17 22 27 29 29 31 32 32 35 39 41 42 44 45 44 42 40 40 40 39 37 36 35 34
23 25 26 27 27 26 24 24 24 25 24 24 23 22 21 21 21 21 21 20 19 19 19 19 20 20 21 23 23 24 25 26 26 27 27 26 25 25 24 23 21 20 18 19 20 20 23 26 26 27 31 33 35 35 34 33 30 26 20 14 8 9 11 12 18 23 26 28 28 29 32 33 34 35 37 38 40 42 43 43 42 42 41 40 39 38 36 35
22 23 24 24 24 22 21 22 22 22 22 21 20 19 19 19 20 20 20 19 18 19 19 19 20 21 22 24 25 26 27 28 28 28 27 26 26 25 24 22 21 19 17 18 18 18 21 23 23 25 29 31 33 34 34 33 31 27 23 18 11 4 7 11 17 21 23 25 26 28 30 32 33 33 34 35 37 39 40 41 43 43 42 41 39 38 37 35
22 23 24 24 22 21 21 20 20 19 19 18 17 17 17 18 18 18 18 18 18 18 19 20 21 22 23 25 26 27 28 29 29 28 26 25 25 24 23 20 18 17 16 17 16 17 20 21 21 23 27 29 31 32 32 32 31 29 26 23 17 9 4 8 11 14 18 21 23 25 27 30 30 30 33 35 36 38 38 40 42 43 42 41 39 38 37 36
21 22 23 23 21 20 19 18 15 14 13 13 13 14 15 16 17 17 17 18 18 19 20 21 22 23 25 26 27 28 29 29 28 27 25 24 23 22 20 17 15 15 16 15 14 16 19 19 20 22 25 27 30 31 31 31 31 30 30 28 24 18 12 9 7 7 12 16 19 22 24 28 30 30 33 35 36 37 38 39 40 42 42 41 39 38 38 37
21 22 23 22 21 18 17 15 12 8 7 7 9 11 13 14 15 15 16 17 18 19 20 21 23 24 25 27 28 29 29 28 27 25 24 23 21 20 17 14 13 14 15 14 13 15 17 17 18 21 23 25 28 29 30 32 32 33 33 32 29 23 18 14 10 7 6 8 13 16 20 23 26 29 32 34 34 35 36 38 38 38 39 39 40 39 38 38
22 23 22 22 21 19 16 14 11 8 5 5 7 9 11 12 13 14 15 17 18 19 20 22 23 24 26 27 28 27 27 26 25 24 23 21 19 18 15 12 12 13 14 13 11 14 15 15 17 19 21 23 25 28 29 31 33 35 35 35 32 27 22 18 14 10 6 1 5 10 14 17 20 25 29 31 32 32 34 36 36 36 36 38 39 39 38 38
24 24 24 23 21 20 18 15 13 10 8 7 7 8 9 10 11 13 14 16 18 20 21 22 23 24 25 26 25 25 24 24 22 21 20 19 18 16 13 11 11 12 13 11 10 13 13 14 16 18 20 21 23 26 28 29 32 34 35 34 32 30 28 25 21 16 12 9 4 3 7 11 14 19 22 24 28 31 33 35 35 36 36 37 38 38 38 40
25 25 25 24 23 21 20 18 16 14 12 10 9 9 9 10 11 13 15 16 18 19 20 21 22 23 23 23 22 22 21 21 19 19 18 16 15 14 12 11 11 11 11 9 9 11 11 13 15 17 19 20 21 24 27 28 29 30 31 32 32 31 31 30 26 21 18 15 12 9 4 3 7 11 15 18 22 27 31 34 34 35 35 37 38 38 40 41
25 26 26 26 25 24 22 20 18 16 14 13 11 10 10 10 11 13 15 17 18 19 20 20 20 20 21 21 20 20 19 19 18 17 16 15 13 12 11 11 10 10 10 8 8 9 10 12 15 17 19 20 21 23 26 28 28 28 28 29 31 32 32 31 29 25 21 17 15 14 11 7 5 4 8 12 17 22 27 32 33 33 35 37 39 40 42 43
24 25 26 26 26 25 24 22 20 18 16 14 12 11 10 10 11 13 15 16 17 18 19 19 19 19 19 20 19 19 18 17 17 16 15 14 12 10 9 10 10 10 9 8 8 8 10 12 14 17 18 20 21 22 25 26 27 27 27 26 28 30 31 30 29 27 24 21 18 17 13 10 9 7 5 5 10 16 22 27 31 33 35 35 37 39 40 42
23 24 25 26 26 25 24 22 20 18 17 15 14 12 11 11 11 12 13 15 16 17 18 18 18 18 19 19 19 18 17 16 16 15 14 12 9 7 8 9 9 9 9 8 8 8 10 12 14 16 17 18 20 21 24 26 26 27 26 25 25 25 26 28 29 29 28 25 22 20 16 11 8 6 6 5 5 9 14 21 26 31 33 33 33 35 35 37
22 23 24 25 26 25 24 23 20 19 17 16 15 13 12 11 11 12 12 13 14 16 17 18 18 18 18 18 17 16 15 15 14 13 12 9 7 6 7 8 8 8 8 8 8 9 10 11 13 15 16 16 17 19 22 24 25 26 26 26 25 23 23 24 26 27 27 26 26 23 20 17 12 8 5 4 2 3 8 14 20 26 31 32 30 29 32 36
22 22 24 24 25 25 25 23 21 20 18 17 16 14 14 13 12 12 13 14 15 16 17 18 18 18 18 18 17 15 14 13 12 10 9 8 6 4 6 6 7 6 6 7 8 9 10 11 13 15 16 16 16 17 20 23 24 24 25 26 26 25 24 23 23 23 24 25 25 24 22 20 18 15 12 9 5 3 4 9 14 19 24 29 29 28 31 35
23 23 23 24 24 24 24 24 23 21 20 19 18 17 16 15 15 14 15 15 16 16 17 18 18 18 18 17 16 14 12 11 10 8 7 7 5 4 4 5 5 6 6 7 8 9 10 11 13 14 15 17 16 16 18 21 23 24 24 24 24 25 25 24 22 21 21 22 22 21 21 21 20 20 18 16 13 9 6 5 8 11 16 21 25 28 30 30
25 24 24 24 24 24 24 24 23 22 22 21 20 20 19 18 17 17 16 16 16 16 17 18 19 19 18 18 17 15 13 11 9 7 7 6 5 3 2 3 4 5 7 7 8 9 10 11 12 13 15 16 17 16 17 20 21 22 24 22 21 22 24 24 22 20 19 19 18 18 18 19 20 22 21 19 17 15 11 8 5 5 8 12 16 21 25 26
24 25 25 25 24 24 24 23 23 23 23 23 22 22 21 20 19 18 18 17 17 17 18 19 19 20 19 19 18 16 14 12 10 8 7 6 4 2 1 2 4 6 7 9 9 10 11 11 12 13 14 16 17 17 16 18 19 20 23 22 19 19 20 20 21 20 18 17 16 15 15 16 18 19 19 19 18 17 15 13 10 7 4 3 5 9 13 17
24 24 24 25 25 24 23 23 23 23 23 23 23 23 22 22 21 20 19 19 19 19 19 20 21 21 21 20 19 18 16 14 12 10 8 7 5 3 2 3 5 7 8 10 11 11 11 12 13 14 15 16 17 17 16 16 17 19 22 20 17 17 17 17 18 18 17 16 15 14 13 14 15 15 15 16 16 16 16 15 14 12 10 7 4 1 2 6
26 25 25 25 24 24 23 22 22 22 23 23 22 22 23 22 22 22 21 21 21 21 21 21 22 22 23 22 22 21 19 17 15 13 10 9 7 6 5 5 7 8 9 10 12 12 12 12 14 15 16 17 17 17 16 16 16 17 18 17 15 15 16 17 17 16 14 13 14 15 14 13 13 12 12 12 12 13 13 14 14 13 12 11 9 7 4 2
25 26 26 26 25 24 23 21 21 22 22 22 22 22 22 22 22 23 23 23 23 23 23 22 23 23 24 24 24 23 22 20 19 16 13 12 10 9 8 8 8 9 9 10 11 11 12 12 14 15 16 17 17 17 15 14 14 14 14 14 14 14 14 15 17 17 14 11 11 13 14 14 13 12 11 10 10 10 10 10 10 11 11 10 10 8 7 6
24 25 26 27 27 26 24 22 21 22 22 22 22 22 22 22 22 22 23 23 24 24 24 24 24 24 24 24 24 24 24 22 21 19 17 16 14 13 12 10 9 9 9 9 10 10 11 12 13 14 15 14 14 13 12 11 11 11 12 12 13 14 14 14 15 16 16 14 11 9 10 12 14 13 12 10 9 9 8 7 7 7 8 8 8 7 7 6
23 23 24 25 26 27 25 23 22 22 21 22 22 22 22 21 22 22 22 22 23 23 24 24 24 24 24 24 24 24 24 23 22 21 19 18 17 16 15 14 13 12 11 10 10 11 11 12 12 13 12 12 11 11 10 11 11 12 12 13 14 15 15 15 16 16 17 17 15 12 9 10 12 13 13 12 10 9 9 8 7 6 5 5 5 5 5 5
23 23 23 24 25 25 26 25 24 23 22 21 21 21 21 21 22 21 21 21 21 21 22 22 23 23 23 23 23 22 22 22 22 21 20 20 19 18 17 16 15 14 13 12 11 11 11 11 11 12 12 11 10 11 12 13 14 14 14 14 14 16 17 18 18 18 18 18 18 16 12 11 11 11 13 14 13 11 11 11 10 9 7 6 5 5 5 5
22 23 23 23 24 24 25 26 26 26 24 23 22 21 21 21 21 21 21 20 20 20 20 20 21 21 21 21 21 21 21 20 20 20 20 20 19 19 18 17 16 15 15 14 13 13 13 12 11 11 11 11 11 12 13 14 15 15 15 16 16 17 18 19 19 19 19 19 19 18 14 12 12 12 13 15 15 15 15 15 14 14 13 11 10 8 7 7
21 22 22 22 23 23 23 25 26 27 27 26 25 23 22 22 22 21 21 21 20 19 19 19 19 19 19 19 19 19 19 19 18 18 18 18 18 17 17 17 16 16 15 15 15 14 13 12 12 11 12 12 13 13 14 14 15 16 16 17 17 18 18 19 19 19 19 19 19 19 16 14 14 14 15 16 17 17 17 18 18 17 17 16 15 13 12 11
21 22 22 22 22 22 22 23 24 26 27 27 27 26 24 23 22 22 21 20 20 20 19 19 18 18 18 18 18 17 17 17 17 16 16 15 15 15 14 14 14 13 13 13 13 12 12 11 11 11 12 13 13 14 14 15 16 17 17 17 18 18 19 19 19 19 18 19 20 19 17 16 16 16 17 17 18 18 18 18 18 19 19 18 17 16 15 14
21 22 22 22 22 23 23 22 23 24 25 25 26 26 26 25 24 22 21 21 20 19 19 19 19 18 18 18 17 17 16 16 16 15 15 14 14 13 13 12 12 11 11 11 11 11 11 11 11 11 12 12 13 14 14 15 16 17 18 18 18 18 19 19 19 19 19 19 20 20 19 19 19 18 18 18 18 19 19 19 18 17 17 18 18 18 17 17
21 22 23 23 23 23 24 23 23 23 24 24 25 26 26 26 25 24 23 22 21 20 19 18 18 19 19 19 18 18 17 16 15 15 15 14 14 13 12 12 12 11 11 11 11 12 12 12 12 12 13 13 13 14 14 15 15 16 17 18 19 19 19 19 19 19 19 19 20 21 20 20 21 20 20 19 19 19 20 20 19 17 15 14 15 16 18 18
21 22 23 24 24 24 25 25 24 24 24 24 25 25 26 26 26 26 25 23 22 21 20 19 19 19 19 20 20 19 19 18 17 16 15 15 14 14 13 13 12 12 12 12 12 13 13 13 13 13 14 14 15 15 15 16 16 16 17 17 18 19 20 20 21 20 20 20 21 21 21 21 21 22 22 22 21 20 19 20 20 19 17 13 11 12 15 17
22 23 24 24 25 25 26 26 26 25 24 24 25 25 25 25 25 26 26 25 24 22 20 19 19 19 19 20 21 21 21 20 20 19 18 17 16 16 15 15 15 14 14 15 15 15 15 15 15 15 15 15 16 17 17 17 17 18 18 18 18 19 20 22 22 22 22 21 21 22 21 21 22 22 23 23 23 21 20 20 19 19 18 15 12 9 10 12
24 25 25 26 26 26 27 27 27 26 25 25 25 25 25 25 25 25 26 26 26 25 22 20 18 18 19 20 21 22 23 23 22 22 21 21 20 20 18 17 17 17 17 17 18 18 18 18 18 18 18 18 18 19 19 18 18 18 19 20 21 20 21 23 24 24 24 23 22 22 22 22 22 22 23 23 24 23 22 21 20 19 18 16 14 11 9 8
26 27 27 27 27 28 28 28 28 27 26 25 25 25 26 25 25 25 26 26 26 26 26 24 21 19 18 19 20 22 23 24 24 24 24 24 24 24 23 21 20 20 20 20 21 21 21 21 22 22 21 21 22 23 23 23 21 19 19 21 23 23 23 23 24 26 26 25 24 23 23 22 22 22 22 22 23 23 23 22 21 20 18 17 16 15 13 12
26 27 28 29 29 29 29 29 29 28 28 26 25 25 26 26 25 25 26 27 27 27 27 26 26 24 21 19 19 21 22 23 24 25 25 26 26 26 26 26 24 23 23 23 23 23 23 24 24 25 24 24 24 26 27 27 26 24 22 23 25 26 25 25 24 25 27 27 26 25 25 25 24 23 22 22 23 23 23 23 22 20 19 18 18 17 16 15
26 27 29 29 29 30 30 31 31 30 30 29 27 27 26 26 27 26 26 26 27 27 27 27 27 26 25 23 21 21 22 23 24 25 26 27 28 28 28 28 28 27 27 26 26 26 25 25 25 26 27 26 25 26 29 30 29 28 27 27 27 27 27 26 25 25 26 28 27 26 26 26 26 25 24 24 23 23 23 23 23 21 19 18 17 17 17 16
26 28 29 29 30 30 31 31 32 32 32 31 30 29 29 29 28 28 28 27 27 28 28 28 27 27 26 26 25 24 24 24 25 26 27 28 29 30 31 31 30 30 30 30 30 29 27 26 26 27 28 28 26 26 28 30 31 30 30 30 29 28 28 28 27 26 26 27 27 27 27 27 27 27 26 26 25 25 24 24 23 23 21 19 18 18 18 18
28 29 31 31 31 31 31 32 32 33 33 33 32 32 32 31 31 30 29 29 29 29 29 29 29 28 27 27 27 28 27 27 27 27 29 30 31 32 33 34 34 33 32 32 33 33 31 29 27 27 28 29 27 26 27 29 30 30 31 32 31 29 29 28 28 27 26 27 27 27 27 27 28 28 28 27 27 27 26 25 24 24 23 21 19 18 18 18
Wind_Direction
276 279 282 284 286 287 288 288 289 290 292 293 293 293 293 294 294 293 293 292 291 291 291 291 289 289 289 290 291 292 292 293 294 296 298 299 300 301 301 300 300 299 298 298 299 301 302 301 300 298 298 299 301 300 300 299 299 296 290 283 273 265 263 262 257 248 240 237 243 246 243 242 240 234 230 225 225 223 222 223 222 222 218 217 216 213 207 195
277 280 283 285 286 287 288 288 289 290 292 294 294 295 295 296 295 295 294 293 292 292 292 291 290 290 290 291 292 293 294 295 297 299 301 302 302 302 302 301 300 299 298 299 302 304 304 302 300 299 299 301 303 303 301 300 299 296 289 280 272 264 259 258 258 250 241 238 239 242 241 240 239 234 230 226 224 223 222 223 222 222 219 215 213 212 205 198
279 281 283 285 286 287 288 288 289 291 294 296 296 297 298 299 297 296 296 294 293 292 291 290 290 290 290 291 292 294 296 298 300 302 303 304 304 304 303 302 300 299 299 301 304 306 306 303 301 299 301 304 305 304 302 300 299 297 290 279 270 264 258 255 254 250 243 237 236 240 241 239 239 236 233 229 225 223 223 223 223 222 220 215 211 211 203 196
280 282 284 286 288 288 288 288 289 291 294 297 298 299 300 301 299 298 296 295 293 291 291 290 290 290 291 292 294 296 298 300 302 304 304 305 305 305 304 303 301 299 300 303 306 309 307 304 302 301 302 304 305 304 302 301 299 295 289 280 270 264 259 253 249 247 242 235 233 237 240 239 238 237 234 231 227 224 224 223 224 223 220 216 211 210 204 198
281 284 286 288 289 289 289 289 290 291 294 296 298 300 301 301 300 298 297 295 293 291 290 290 291 291 292 294 296 298 300 302 304 305 306 307 307 306 306 305 302 299 300 305 309 310 309 306 305 304 303 305 305 305 304 302 299 295 288 280 271 263 256 250 245 244 242 237 234 235 237 239 238 236 234 232 229 225 224 223 223 223 221 218 213 211 208 204
283 285 287 289 290 290 291 292 292 293 294 295 296 298 299 300 300 299 297 294 292 291 291 291 291 292 293 295 297 299 302 304 305 306 308 309 309 308 309 307 302 299 301 307 311 312 312 310 308 306 305 305 306 306 306 304 300 296 289 280 272 264 255 249 245 242 242 240 237 235 236 237 237 236 234 232 231 227 225 223 222 222 220 218 215 213 212 211
284 286 288 290 291 292 293 294 295 295 294 295 295 295 296 297 299 298 297 294 292 292 291 291 291 292 294 296 299 301 303 304 306 308 310 311 311 311 311 310 304 300 302 307 312 314 314 313 311 309 308 306 307 309 309 305 302 298 292 282 274 266 257 250 244 241 240 240 238 236 236 236 236 235 234 232 232 230 227 225 223 222 220 218 216 215 215 216
285 287 289 291 292 293 293 294 294 294 294 294 294 294 293 294 296 298 296 294 293 292 291 291 292 292 295 298 300 302 304 305 307 309 312 313 314 314 313 312 309 302 302 308 313 316 315 315 314 312 310 309 311 313 311 308 305 301 294 286 276 267 259 251 245 241 238 237 237 236 235 234 234 234 234 233 232 231 230 228 225 224 222 219 217 216 217 218
285 288 290 291 292 292 292 292 292 291 292 292 293 293 292 292 293 295 296 294 293 292 291 291 291 293 297 300 302 303 304 306 308 311 313 314 316 317 314 313 312 307 303 307 313 316 316 316 315 314 313 313 316 316 314 312 309 304 298 290 280 270 261 252 245 240 236 235 235 236 234 232 231 232 232 232 232 232 231 230 228 226 224 222 219 218 218 219
287 289 290 290 291 291 290 290 290 289 288 289 290 291 292 291 291 292 294 294 293 292 291 291 291 294 298 300 303 304 305 306 309 311 313 314 316 317 316 313 312 310 305 304 310 315 316 317 318 318 318 319 320 319 318 317 314 309 301 292 283 273 262 253 246 240 235 232 232 234 233 230 229 230 230 231 232 232 232 231 231 230 228 226 223 221 221 221
288 289 290 290 290 290 290 289 288 287 286 286 286 287 288 290 290 290 291 293 292 291 290 290 291 295 298 301 303 304 304 307 309 310 312 313 315 317 318 314 310 311 307 303 307 312 315 319 321 322 323 323 323 323 323 322 320 315 305 294 285 276 265 253 245 240 235 232 230 231 232 230 228 228 228 230 231 232 233 233 233 232 232 230 227 224 223 224
289 290 290 291 291 290 290 289 287 286 285 284 283 283 284 286 288 288 288 290 291 290 289 289 291 295 299 301 303 304 305 307 308 310 311 313 314 315 316 315 310 310 308 303 304 310 315 321 324 325 325 325 326 327 328 328 327 323 312 298 288 279 267 253 243 238 235 232 230 229 231 231 229 229 229 229 230 231 232 233 234 233 233 232 230 227 225 225
290 291 291 291 291 291 291 290 288 287 285 283 281 280 279 281 283 285 286 286 288 289 288 288 291 295 299 302 303 304 305 306 308 311 312 312 313 313 313 314 311 309 307 303 304 309 317 323 325 326 326 328 330 332 334 334 332 326 316 303 294 284 270 255 243 238 235 233 230 229 230 231 231 230 230 230 230 230 231 232 232 232 232 233 233 231 229 228
292 293 293 294 294 294 293 292 291 289 287 285 282 279 277 276 278 281 283 283 284 286 288 288 291 295 299 302 302 302 303 305 308 310 311 311 311 310 310 313 311 308 305 304 307 311 319 325 326 327 328 331 334 336 339 339 336 329 320 305 291 279 268 259 249 241 237 235 231 228 228 230 231 231 231 231 231 230 230 230 231 232 232 232 233 233 232 231
297 298 298 297 296 295 294 292 291 289 288 287 286 283 279 274 273 275 279 281 282 284 286 288 291 294 299 301 300 300 302 305 308 309 310 310 309 308 309 311 310 306 304 306 310 313 320 326 328 328 330 333 336 338 341 343 341 337 327 303 287 272 253 254 255 247 240 238 234 229 227 228 231 232 231 231 232 231 231 230 231 232 232 232 233 233 233 233
304 302 300 297 295 293 291 289 288 287 286 285 285 285 283 277 270 270 274 279 281 283 285 287 290 294 298 299 299 300 301 303 306 308 309 309 308 307 307 308 308 305 305 308 310 313 322 328 329 330 333 335 337 340 343 346 346 343 336 309 291 277 249 240 246 247 243 240 236 232 228 228 231 232 233 233 233 233 233 233 233 233 233 232 233 233 232 233
308 304 300 296 294 292 290 288 286 284 283 282 281 282 283 280 271 265 269 275 280 283 285 287 290 294 297 298 299 300 301 303 306 308 309 308 307 306 305 306 306 304 305 308 310 315 325 329 329 331 335 337 338 340 345 349 350 349 345 323 291 270 253 238 238 246 247 242 237 234 229 229 234 235 236 235 234 234 233 233 233 233 232 232 232 232 232 232
313 309 307 304 300 298 296 293 289 285 283 282 280 278 280 281 272 264 265 271 278 283 286 288 291 294 296 297 299 299 300 303 306 308 308 308 306 305 304 304 304 302 302 308 310 315 326 330 331 334 338 340 341 344 348 352 353 355 356 347 320 268 251 236 234 242 248 245 238 235 231 230 235 239 240 238 236 235 233 231 231 232 232 232 232 233 233 232
323 322 320 316 311 307 305 300 292 286 282 281 280 278 277 279 274 265 264 268 275 282 286 289 291 294 295 297 298 299 301 304 306 308 308 306 305 304 302 301 300 296 297 305 308 315 327 331 332 337 341 343 344 346 351 354 357 3 7 8 6 306 250 241 235 234 240 243 240 237 235 233 235 240 243 241 240 239 235 233 233 233 233 234 234 234 235 234
336 335 333 328 321 317 315 307 294 284 278 277 278 277 275 277 275 267 265 268 273 278 284 288 291 293 295 296 298 300 302 305 306 307 306 305 303 302 300 297 294 289 293 304 308 317 329 332 334 341 344 345 346 348 353 359 4 10 16 19 19 14 319 273 253 239 238 240 240 237 234 234 234 237 240 239 238 238 236 234 235 234 234 235 236 236 237 237
346 346 345 340 331 326 324 319 305 290 279 275 274 274 274 277 277 271 268 270 274 278 282 286 290 293 295 297 299 301 304 305 305 305 304 302 301 302 300 294 286 283 292 303 307 320 330 333 337 343 347 348 348 351 356 3 9 16 22 25 24 21 7 336 310 270 247 239 237 235 233 233 232 233 234 232 232 233 233 233 234 234 234 235 237 238 239 238
356 356 355 352 345 339 337 334 326 312 292 278 273 274 277 281 281 276 273 275 278 282 286 289 292 295 297 299 301 303 304 304 304 304 303 302 303 304 300 288 277 280 292 299 306 323 331 333 339 345 350 352 353 356 2 8 14 20 25 29 29 26 19 8 354 328 273 238 234 236 239 238 236 236 237 233 231 231 231 231 233 234 234 235 236 238 239 239
3 5 6 4 2 358 355 354 352 347 333 306 290 287 288 288 285 281 280 282 285 289 292 294 296 298 300 302 303 304 304 304 305 305 304 304 303 302 296 279 270 279 291 297 310 326 331 333 340 347 354 358 359 2 8 13 19 25 27 30 31 31 31 30 24 15 10 320 241 239 242 241 237 240 240 237 233 231 230 230 231 232 232 233 235 237 239 240
8 11 13 14 15 15 14 14 14 12 5 349 330 316 307 300 295 292 291 292 294 296 297 299 300 301 303 304 305 306 305 306 307 306 306 306 303 299 290 273 268 282 293 300 319 328 330 335 343 350 358 3 3 5 11 17 24 30 31 31 31 32 33 36 36 34 35 36 16 284 247 240 239 241 241 237 234 231 229 230 230 230 230 231 233 235 237 240
11 13 15 17 20 23 24 25 25 24 21 13 2 349 334 320 310 304 300 299 300 300 302 303 305 306 307 307 308 308 307 308 309 307 307 307 304 297 284 271 273 286 291 297 319 325 327 339 347 352 360 6 6 6 11 18 25 31 33 33 34 34 36 36 38 37 36 34 24 16 7 266 252 246 240 233 230 231 229 229 229 229 229 230 231 232 234 236
13 15 17 18 20 23 25 26 25 24 23 19 13 3 348 331 319 311 306 305 305 306 308 310 312 312 312 311 310 309 308 309 309 309 310 310 308 298 281 271 275 285 284 288 312 317 322 338 350 354 360 6 7 7 10 14 21 27 31 34 35 37 38 38 40 41 40 38 27 21 22 8 349 303 253 230 224 230 230 228 227 226 228 229 231 231 233 235
17 17 18 19 20 22 23 24 24 22 21 17 13 4 353 337 325 318 314 313 314 315 316 318 320 319 317 315 314 312 310 310 311 313 315 316 313 300 279 269 275 282 277 285 310 310 316 335 349 356 358 2 7 9 9 10 15 21 25 30 35 39 40 40 42 43 44 44 39 33 27 13 4 354 323 262 229 230 230 227 224 223 226 229 233 235 237 239
23 20 19 21 22 23 23 23 23 23 22 19 15 8 359 348 338 332 326 324 323 323 324 325 326 326 324 322 321 320 317 315 315 316 318 321 318 299 275 270 276 280 277 290 313 310 313 330 345 358 359 358 3 6 7 7 8 12 16 23 31 38 41 42 43 44 44 44 46 44 40 35 25 4 342 326 269 236 227 226 223 222 223 226 233 239 241 244
28 26 23 23 24 24 25 24 24 25 26 24 21 16 10 2 355 349 341 337 334 332 330 331 334 335 332 330 330 328 325 322 320 319 318 319 316 294 273 273 279 278 277 298 316 310 311 324 339 355 360 355 356 359 1 4 5 5 6 12 20 29 36 41 45 46 45 45 46 45 44 46 50 50 37 13 319 243 223 223 222 222 222 220 225 234 240 245
29 31 29 27 25 26 27 27 26 27 29 30 28 24 20 14 8 360 352 348 345 340 337 338 342 342 339 338 339 337 335 333 329 324 318 315 310 288 269 273 281 277 279 302 312 309 312 323 334 349 357 354 350 351 353 357 3 4 2 3 8 15 22 30 38 44 46 48 48 46 45 48 53 57 59 63 72 110 184 208 215 219 222 220 220 224 232 243
31 32 33 31 28 27 28 28 28 29 31 33 32 29 25 19 13 5 360 357 353 350 347 347 350 351 349 347 347 348 350 349 341 329 317 313 313 296 271 269 270 270 280 297 305 307 314 327 335 342 352 353 347 345 347 351 356 0 0 359 1 6 11 16 24 33 40 45 48 47 46 47 50 54 55 57 63 75 104 150 189 207 217 221 223 225 227 235
34 34 34 34 31 29 28 28 28 29 31 32 32 31 28 23 17 10 6 4 2 359 359 359 360 0 360 358 358 360 2 2 355 341 325 319 321 316 273 260 256 263 280 293 300 307 315 328 336 337 345 351 348 343 344 347 350 352 354 355 355 360 5 7 10 17 26 35 41 43 45 46 49 51 51 52 54 56 64 80 113 164 197 212 220 226 228 228
35 34 33 32 32 31 29 28 27 27 29 31 32 31 29 26 21 16 13 11 11 10 9 10 10 11 11 10 10 11 10 9 8 3 353 340 336 333 286 261 266 273 286 297 303 310 316 324 331 333 338 344 345 343 342 344 344 342 347 350 350 354 359 2 4 6 9 16 26 34 39 42 47 50 50 51 53 54 53 55 61 71 91 164 203 218 227 230
35 32 31 30 29 29 29 30 29 26 27 29 31 32 31 29 25 22 19 17 17 17 17 18 18 19 21 22 23 23 20 17 18 21 16 5 353 341 316 293 290 291 297 304 310 314 316 319 323 328 332 334 337 340 339 338 337 337 341 345 345 347 352 356 359 2 1 359 4 14 27 34 39 44 47 47 49 53 53 53 53 53 55 54 54 69 240 244
37 34 32 30 27 26 27 30 31 29 26 26 28 30 31 30 28 25 23 21 21 20 21 22 22 24 26 28 30 30 29 27 26 26 22 14 5 351 337 323 313 309 309 311 314 317 317 317 319 323 327 328 330 335 336 334 335 335 338 341 340 342 347 350 352 357 358 353 349 353 2 15 25 31 34 38 41 45 48 50 52 52 52 54 53 53 50 28
36 36 34 31 29 27 26 28 32 32 29 25 24 25 28 29 28 27 24 23 22 21 21 22 23 25 27 30 32 33 33 32 30 28 22 16 10 360 351 341 330 323 321 319 319 320 319 319 321 324 325 327 333 339 341 338 337 337 339 342 342 345 348 347 346 349 351 349 344 341 343 350 359 7 14 19 23 29 36 41 45 48 49 49 49 49 50 50
30 34 34 32 30 29 28 29 31 32 31 28 25 22 21 23 25 26 25 25 24 22 21 20 21 23 25 28 31 34 35 34 33 30 25 20 15 9 3 358 353 345 338 334 330 327 327 328 329 331 333 338 348 353 351 349 348 347 350 350 348 353 357 354 351 350 350 350 347 337 329 329 335 343 349 356 0 2 8 16 24 32 36 38 38 37 35 38
22 28 31 31 30 29 29 29 29 29 29 28 26 23 20 18 18 20 22 24 23 23 22 21 19 20 21 24 27 31 34 35 35 33 31 28 23 18 13 9 8 6 358 351 345 340 340 341 341 345 353 3 9 9 8 11 11 9 8 6 1 5 9 8 5 1 359 359 357 351 332 313 314 321 326 331 335 336 338 340 346 355 4 8 11 12 11 11
11 18 25 29 27 25 25 26 26 26 27 27 26 24 21 18 15 13 15 18 19 20 21 21 20 18 18 19 21 25 29 32 34 34 34 33 30 28 25 20 16 14 11 8 3 1 4 5 4 7 16 23 23 20 22 24 25 23 22 21 16 15 18 18 16 12 10 10 11 12 1 336 321 312 309 315 317 316 315 317 317 316 316 319 321 327 330 333
0 7 15 21 23 21 20 21 21 23 25 26 26 25 22 19 16 12 9 8 10 13 16 17 18 18 17 16 15 17 20 24 28 30 32 32 32 32 32 30 27 24 24 24 24 24 26 29 28 24 24 27 26 25 25 25 26 26 26 25 24 23 21 22 22 20 17 15 20 26 22 1 344 329 317 316 316 311 306 303 302 301 301 302 302 301 300 302
352 358 4 10 14 16 16 16 15 17 19 20 22 24 23 21 17 13 8 4 2 3 6 10 13 13 13 13 12 12 13 15 19 22 25 28 29 30 32 34 33 30 29 30 32 33 33 34 32 27 24 23 22 21 19 19 20 22 23 23 23 23 23 23 24 24 20 15 19 26 24 12 1 352 342 335 330 324 316 307 301 295 292 292 293 294 294 292
345 350 356 1 5 8 10 11 11 12 13 14 16 18 20 21 19 14 9 4 0 357 356 358 1 5 6 7 7 8 8 9 10 11 13 16 19 21 24 28 30 30 28 26 25 26 27 25 22 19 18 17 15 13 12 12 13 13 15 17 17 18 20 21 22 22 19 14 15 19 18 13 8 3 358 353 347 342 334 324 313 300 292 287 284 285 287 287
338 343 348 352 356 360 2 5 6 7 9 9 10 11 13 16 17 14 10 5 1 356 352 350 350 353 355 356 357 359 1 1 1 1 1 2 3 5 8 10 12 14 14 12 9 8 8 7 6 5 5 6 5 4 4 4 4 4 5 6 8 9 11 13 15 18 16 10 10 12 12 9 7 4 1 358 356 353 348 341 332 317 304 292 284 279 278 279
333 336 340 343 348 352 354 357 359 0 3 3 4 5 8 9 11 12 10 6 2 357 352 346 344 343 344 345 345 347 349 351 352 352 350 350 349 349 349 348 349 350 351 350 349 348 348 349 348 348 349 350 350 350 351 353 354 355 354 355 356 357 358 1 4 8 10 6 3 5 6 4 2 1 359 357 356 355 351 348 344 337 323 306 292 284 281 279
328 331 333 336 340 343 345 348 351 354 356 357 357 359 1 2 5 7 7 5 2 359 353 347 342 338 336 335 336 336 337 340 341 341 341 339 337 335 333 331 329 329 329 329 329 329 329 330 331 332 333 334 335 337 338 339 340 342 343 344 345 346 347 348 350 354 359 359 356 356 359 357 356 356 356 356 356 353 349 347 346 344 339 328 310 294 288 286
324 326 327 330 332 336 338 340 344 347 350 351 351 352 352 354 358 1 2 3 1 358 353 347 342 337 332 329 328 328 328 330 330 331 331 330 328 324 322 320 317 315 315 314 314 314 314 315 316 317 318 321 322 322 324 327 329 330 331 332 333 335 336 337 338 341 345 348 347 347 350 350 349 350 350 351 353 351 347 344 343 344 345 342 334 319 299 290
319 320 322 324 326 329 332 334 337 340 343 345 346 346 344 346 349 352 355 358 359 357 354 349 342 337 332 327 324 322 320 321 322 322 323 323 322 320 317 313 310 309 308 307 306 305 305 304 305 306 308 310 311 311 311 314 318 321 322 321 322 325 327 327 328 330 333 337 337 337 339 341 342 343 344 344 346 347 345 343 341 340 342 344 344 342 334 316
315 316 317 319 322 324 326 329 331 334 337 339 340 340 340 341 343 345 346 349 352 353 354 353 349 341 333 327 322 318 315 314 313 314 315 315 315 315 314 312 309 306 304 303 302 301 300 300 300 300 299 301 303 303 304 306 308 312 313 311 311 316 319 319 320 321 323 327 329 327 329 331 332 334 336 337 338 340 341 341 340 339 338 339 342 344 345 341
313 313 313 315 317 319 321 324 326 328 330 332 334 335 335 337 339 341 341 342 344 346 349 351 351 348 342 332 323 317 313 310 308 307 307 307 307 307 307 307 307 306 304 301 299 297 297 297 297 297 296 295 297 298 299 300 301 304 305 303 303 307 311 312 314 315 314 317 320 320 321 323 324 325 327 329 331 334 336 338 338 338 336 336 336 338 339 338
310 310 310 312 314 315 318 320 322 323 324 326 327 328 329 332 336 339 340 340 340 340 342 344 347 349 348 344 334 323 314 308 305 302 300 298 298 299 300 301 301 301 302 301 299 296 295 294 294 295 294 293 294 296 297 297 299 300 300 298 299 301 304 307 309 310 310 311 313 314 315 317 318 320 321 322 324 327 330 333 334 334 334 333 332 332 332 331
304 305 305 308 311 314 316 317 319 320 321 322 323 324 324 325 328 333 336 338 339 339 339 340 341 343 345 345 343 337 327 317 309 303 299 296 294 293 293 294 294 294 295 296 296 296 294 293 292 293 293 292 292 292 294 295 297 299 298 297 297 299 301 304 306 307 306 306 307 308 311 313 313 315 317 317 318 321 324 328 330 331 331 331 330 329 328 328
297 299 301 304 308 311 313 315 316 318 320 321 321 322 321 321 320 323 326 330 333 335 336 337 337 337 338 341 342 342 338 332 323 313 305 300 296 293 291 289 288 288 288 289 289 291 291 291 291 291 292 292 292 291 291 292 294 296 296 295 295 297 299 301 303 304 302 301 301 304 308 310 310 310 312 313 314 316 318 323 326 327 328 328 328 328 326 326
Height
10744 10743 10742 10741 10740 10738 10737 10736 10734 10733 10731 10729 10727 10726 10724 10723 10721 10720 10718 10717 10716 10716 10715 10715 10714 10713 10713 10712 10711 10710 10709 10708 10707 10706 10705 10703 10702 10701 10699 10698 10696 10695 10693 10692 10690 10689 10687 10686 10685 10683 10682 10681 10679 10678 10677 10676 10675 10674 10672 10671 10671 10671 10672 10672 10674 10677 10681 10682 10681 10680 10681 10680 10680 10681 10682 10684 10684 10685 10686 10686 10687 10689 10692 10695 10698 10700 10703 10707
10741 10740 10739 10738 10736 10735 10734 10733 10731 10730 10728 10726 10725 10723 10722 10720 10719 10717 10716 10715 10714 10713 10713 10712 10712 10711 10710 10709 10708 10707 10706 10705 10704 10703 10702 10701 10699 10697 10696 10695 10694 10692 10691 10689 10688 10686 10685 10683 10682 10680 10679 10677 10676 10675 10674 10672 10671 10670 10669 10667 10667 10667 10668 10669 10670 10672 10674 10676 10677 10676 10677 10677 10676 10677 10679 10680 10681 10682 10682 10682 10684 10685 10688 10691 10695 10698 10701 10705
10738 10737 10736 10734 10733 10732 10731 10730 10728 10727 10725 10724 10722 10721 10719 10718 10716 10715 10713 10712 10712 10711 10710 10710 10709 10709 10708 10707 10706 10705 10704 10703 10702 10701 10699 10698 10697 10695 10693 10692 10691 10689 10688 10687 10686 10684 10682 10681 10679 10677 10676 10674 10673 10672 10670 10669 10667 10666 10665 10663 10662 10663 10664 10665 10665 10667 10668 10671 10672 10672 10673 10673 10672 10674 10676 10678 10678 10679 10679 10679 10681 10683 10685 10688 10692 10694 10698 10702
10734 10733 10732 10731 10730 10729 10728 10726 10725 10724 10722 10721 10720 10718 10717 10716 10714 10713 10711 10710 10709 10709 10708 10708 10707 10707 10706 10705 10704 10703 10702 10701 10699 10698 10697 10696 10694 10693 10691 10689 10688 10687 10686 10685 10683 10682 10680 10678 10676 10674 10672 10671 10670 10669 10667 10665 10664 10662 10660 10659 10658 10659 10660 10661 10661 10661 10664 10666 10667 10668 10669 10669 10670 10672 10674 10675 10675 10675 10675 10676 10678 10679 10682 10685 10688 10690 10694 10697
10731 10730 10729 10728 10726 10725 10724 10723 10722 10721 10720 10718 10717 10716 10715 10713 10712 10711 10710 10708 10707 10707 10706 10706 10705 10705 10704 10703 10702 10701 10700 10698 10697 10696 10695 10693 10692 10690 10689 10687 10686 10685 10683 10682 10681 10679 10678 10675 10673 10671 10669 10668 10667 10665 10663 10661 10660 10658 10656 10654 10654 10655 10656 10656 10656 10656 10659 10661 10662 10663 10664 10665 10667 10669 10671 10672 10671 10671 10671 10672 10674 10675 10678 10681 10684 10686 10689 10690
10727 10726 10725 10724 10723 10722 10721 10720 10719 10718 10717 10716 10715 10714 10713 10711 10710 10709 10708 10707 10706 10705 10704 10704 10703 10703 10702 10701 10700 10699 10698 10696 10695 10694 10692 10691 10690 10688 10687 10685 10684 10683 10681 10680 10679 10677 10675 10673 10670 10668 10666 10665 10664 10662 10660 10658 10656 10654 10652 10650 10649 10650 10651 10651 10652 10652 10654 10657 10657 10658 10660 10662 10664 10666 10667 10667 10667 10667 10667 10668 10669 10671 10674 10677 10679 10682 10684 10685
10724 10723 10722 10721 10720 10719 10718 10717 10716 10715 10714 10713 10712 10711 10710 10709 10708 10707 10706 10705 10704 10703 10702 10702 10701 10701 10700 10699 10698 10697 10695 10694 10693 10692 10691 10689 10688 10686 10685 10683 10682 10681 10679 10678 10677 10675 10673 10670 10668 10665 10664 10662 10660 10658 10656 10654 10652 10650 10648 10646 10645 10646 10647 10647 10648 10649 10651 10652 10653 10655 10656 10658 10660 10662 10663 10663 10663 10663 10663 10664 10665 10667 10670 10673 10676 10678 10680 10682
10721 10720 10719 10718 10717 10716 10715 10714 10713 10712 10711 10710 10710 10709 10708 10707 10706 10705 10704 10703 10702 10701 10700 10700 10699 10699 10698 10697 10696 10694 10693 10692 10691 10690 10689 10687 10686 10684 10683 10681 10680 10678 10677 10676 10675 10673 10671 10668 10665 10663 10661 10659 10657 10654 10653 10651 10648 10646 10644 10642 10641 10642 10642 10643 10644 10645 10647 10648 10650 10651 10652 10654 10655 10657 10658 10658 10659 10659 10660 10660 10661 10663 10666 10670 10673 10675 10677 10679
10718 10717 10716 10715 10714 10713 10712 10711 10710 10709 10708 10708 10707 10706 10705 10705 10704 10703 10702 10700 10699 10699 10698 10698 10697 10696 10696 10695 10693 10692 10691 10690 10689 10688 10686 10685 10684 10682 10681 10679 10677 10676 10675 10674 10673 10671 10668 10665 10663 10661 10658 10656 10653 10651 10649 10647 10644 10642 10639 10638 10637 10637 10638 10639 10640 10641 10643 10644 10646 10647 10647 10649 10650 10651 10653 10654 10654 10655 10655 10656 10658 10660 10663 10667 10670 10673 10675 10677
10715 10714 10713 10712 10711 10710 10709 10708 10707 10706 10705 10705 10704 10704 10703 10702 10702 10701 10700 10698 10697 10697 10696 10695 10695 10694 10693 10692 10691 10690 10689 10688 10687 10686 10684 10683 10682 10680 10679 10677 10675 10674 10673 10672 10671 10669 10666 10663 10660 10658 10655 10652 10650 10648 10645 10643 10640 10638 10636 10634 10633 10633 10633 10635 10636 10637 10638 10639 10640 10641 10641 10643 10645 10646 10647 10649 10649 10650 10651 10652 10654 10657 10661 10665 10669 10672 10674 10675
10713 10711 10710 10709 10708 10707 10706 10705 10703 10702 10702 10701 10701 10701 10700 10699 10699 10699 10697 10696 10695 10694 10694 10693 10693 10692 10691 10690 10689 10688 10687 10686 10685 10684 10683 10681 10680 10679 10677 10675 10673 10672 10671 10670 10669 10667 10663 10660 10658 10655 10652 10649 10647 10644 10641 10639 10636 10634 10632 10630 10629 10628 10629 10631 10631 10632 10633 10633 10634 10635 10635 10637 10639 10641 10642 10644 10644 10645 10647 10649 10652 10656 10661 10664 10667 10669 10671 10672
10710 10708 10707 10705 10705 10704 10703 10701 10700 10699 10698 10698 10697 10697 10697 10697 10696 10696 10695 10694 10693 10692 10692 10691 10691 10690 10689 10688 10687 10686 10685 10684 10683 10682 10681 10679 10678 10677 10675 10673 10671 10670 10669 10668 10667 10665 10661 10658 10655 10652 10649 10647 10644 10641 10638 10635 10632 10630 10628 10626 10625 10625 10625 10627 10627 10627 10628 10627 10628 10630 10631 10633 10635 10636 10638 10639 10639 10641 10643 10646 10650 10655 10659 10661 10664 10666 10668 10669
10708 10706 10704 10702 10701 10700 10699 10697 10696 10694 10694 10693 10693 10694 10694 10693 10693 10693 10693 10692 10690 10690 10689 10689 10688 10688 10687 10686 10685 10684 10683 10682 10681 10680 10679 10678 10676 10675 10673 10671 10670 10669 10667 10666 10665 10663 10659 10656 10653 10650 10647 10644 10641 10638 10635 10632 10629 10626 10624 10622 10621 10621 10621 10622 10623 10623 10624 10623 10624 10627 10628 10630 10630 10631 10633 10633 10634 10636 10639 10643 10647 10652 10656 10659 10661 10664 10666 10667
10705 10703 10701 10699 10697 10696 10695 10694 10692 10691 10690 10689 10689 10689 10690 10690 10690 10690 10690 10690 10688 10688 10687 10686 10686 10685 10685 10684 10683 10682 10681 10680 10679 10678 10677 10676 10674 10673 10671 10670 10668 10667 10666 10664 10663 10661 10658 10654 10650 10647 10644 10641 10638 10636 10633 10630 10626 10624 10622 10620 10618 10618 10618 10618 10619 10620 10620 10620 10621 10623 10625 10626 10626 10626 10627 10629 10630 10633 10636 10640 10644 10649 10653 10656 10659 10661 10663 10665
10702 10700 10698 10695 10694 10692 10691 10690 10688 10687 10686 10686 10686 10686 10686 10686 10686 10687 10687 10687 10686 10686 10685 10684 10684 10683 10683 10682 10681 10680 10679 10678 10677 10676 10675 10674 10673 10671 10670 10668 10667 10665 10664 10663 10661 10659 10656 10652 10649 10645 10642 10639 10636 10634 10631 10628 10624 10621 10621 10619 10616 10616 10616 10616 10616 10617 10617 10616 10618 10620 10622 10623 10623 10622 10623 10624 10626 10629 10633 10637 10642 10647 10650 10653 10655 10657 10660 10661
10700 10698 10695 10692 10690 10688 10687 10686 10684 10683 10683 10683 10682 10682 10682 10682 10683 10684 10684 10684 10684 10683 10683 10682 10682 10681 10680 10679 10679 10678 10677 10676 10675 10674 10673 10672 10670 10669 10668 10667 10665 10664 10662 10661 10659 10657 10654 10651 10647 10643 10640 10637 10634 10632 10629 10626 10622 10619 10618 10616 10613 10612 10612 10613 10614 10614 10614 10614 10616 10618 10619 10621 10620 10618 10619 10621 10623 10627 10631 10636 10641 10644 10647 10649 10652 10654 10656 10658
10698 10695 10692 10689 10686 10684 10683 10682 10680 10679 10679 10679 10679 10679 10679 10679 10680 10680 10681 10681 10681 10681 10680 10680 10679 10679 10678 10677 10676 10675 10674 10674 10673 10672 10671 10669 10668 10667 10666 10664 10663 10662 10661 10659 10658 10656 10653 10650 10646 10642 10639 10636 10633 10630 10627 10623 10620 10617 10615 10613 10611 10608 10608 10610 10611 10611 10611 10612 10613 10615 10617 10617 10616 10616 10617 10619 10621 10624 10628 10633 10637 10640 10642 10645 10648 10650 10652 10654
10696 10693 10690 10686 10683 10681 10679 10678 10677 10676 10676 10676 10676 10676 10677 10677 10677 10677 10679 10679 10679 10678 10678 10677 10677 10676 10675 10674 10674 10673 10671 10671 10670 10669 10668 10666 10665 10664 10663 10662 10661 10660 10659 10658 10656 10655 10653 10649 10645 10641 10638 10635 10631 10628 10624 10621 10618 10615 10612 10610 10609 10607 10606 10607 10608 10608 10608 10609 10611 10612 10613 10614 10613 10614 10616 10618 10620 10622 10625 10629 10632 10635 10638 10641 10644 10647 10649 10651
10693 10690 10687 10683 10680 10678 10676 10675 10673 10672 10672 10673 10673 10673 10674 10674 10674 10675 10676 10677 10677 10677 10676 10675 10674 10674 10673 10672 10671 10670 10669 10668 10667 10666 10665 10663 10662 10661 10660 10660 10659 10658 10657 10656 10655 10654 10652 10649 10645 10641 10638 10634 10631 10628 10625 10621 10617 10613 10610 10607 10607 10606 10605 10605 10604 10604 10604 10605 10607 10608 10610 10611 10612 10613 10615 10617 10618 10620 10623 10626 10628 10632 10635 10638 10641 10644 10646 10649
10691 10688 10684 10680 10677 10675 10673 10671 10669 10669 10669 10670 10671 10671 10671 10671 10671 10672 10673 10674 10675 10675 10674 10673 10672 10671 10670 10669 10668 10667 10666 10665 10664 10663 10662 10661 10659 10658 10658 10657 10657 10656 10656 10655 10654 10653 10651 10649 10646 10642 10639 10635 10632 10628 10625 10621 10616 10612 10608 10605 10604 10604 10604 10603 10601 10601 10601 10601 10603 10604 10605 10607 10608 10610 10611 10613 10615 10617 10620 10623 10625 10628 10632 10635 10638 10641 10643 10646
10690 10686 10683 10679 10676 10673 10671 10668 10667 10666 10667 10668 10669 10669 10669 10669 10669 10670 10671 10672 10672 10672 10672 10671 10670 10669 10668 10666 10665 10664 10663 10662 10661 10660 10659 10658 10657 10656 10655 10655 10655 10654 10654 10654 10653 10652 10650 10648 10646 10643 10639 10635 10632 10628 10625 10621 10616 10612 10608 10605 10602 10601 10602 10601 10600 10599 10599 10599 10599 10600 10600 10601 10603 10605 10606 10608 10610 10613 10616 10618 10621 10624 10628 10632 10635 10637 10639 10641
10689 10685 10682 10678 10675 10672 10669 10667 10666 10665 10665 10666 10667 10667 10667 10667 10668 10668 10669 10670 10670 10670 10669 10668 10667 10666 10665 10664 10663 10662 10660 10659 10658 10657 10656 10655 10654 10654 10653 10653 10653 10653 10652 10652 10652 10651 10649 10648 10646 10644 10640 10636 10632 10628 10624 10620 10616 10612 10608 10605 10603 10602 10601 10600 10599 10598 10597 10597 10597 10597 10598 10599 10600 10602 10604 10606 10608 10611 10613 10615 10617 10621 10625 10629 10631 10633 10635 10637
10688 10685 10681 10678 10674 10671 10669 10667 10666 10665 10665 10666 10666 10666 10666 10666 10666 10667 10667 10668 10668 10667 10667 10666 10665 10664 10663 10661 10660 10659 10657 10656 10655 10654 10653 10653 10652 10652 10651 10651 10651 10651 10651 10651 10650 10649 10648 10647 10646 10644 10641 10637 10633 10629 10625 10621 10617 10613 10610 10607 10606 10604 10602 10600 10598 10597 10596 10596 10596 10596 10596 10597 10598 10599 10600 10603 10606 10609 10611 10612 10614 10618 10622 10625 10627 10629 10632 10634
10687 10684 10681 10678 10675 10672 10669 10667 10666 10665 10665 10665 10665 10665 10665 10665 10665 10665 10665 10666 10665 10665 10664 10664 10662 10661 10660 10659 10657 10656 10655 10653 10653 10652 10651 10650 10650 10649 10649 10649 10650 10649 10649 10649 10649 10648 10647 10646 10645 10643 10641 10637 10634 10631 10627 10623 10619 10616 10613 10610 10609 10606 10603 10600 10598 10597 10596 10596 10596 10596 10595 10596 10596 10596 10597 10599 10602 10605 10607 10609 10612 10615 10618 10621 10623 10626 10629 10630
10687 10684 10681 10679 10676 10673 10670 10668 10666 10666 10665 10665 10665 10665 10665 10664 10664 10664 10664 10664 10663 10663 10662 10661 10660 10659 10657 10656 10655 10654 10652 10651 10651 10650 10649 10649 10648 10647 10647 10648 10648 10648 10648 10648 10648 10647 10647 10645 10644 10642 10640 10637 10635 10631 10628 10625 10622 10619 10617 10614 10611 10608 10604 10601 10599 10597 10596 10595 10595 10595 10595 10595 10595 10595 10595 10597 10599 10602 10604 10606 10609 10612 10615 10618 10620 10623 10625 10626
10686 10684 10681 10679 10676 10674 10671 10669 10667 10666 10665 10665 10664 10664 10664 10664 10663 10663 10662 10662 10661 10660 10659 10659 10658 10656 10655 10653 10652 10651 10650 10649 10648 10648 10647 10647 10646 10646 10646 10646 10646 10646 10647 10647 10647 10647 10645 10644 10642 10640 10638 10636 10634 10631 10629 10626 10624 10622 10620 10617 10613 10610 10607 10604 10602 10600 10598 10597 10597 10595 10594 10594 10593 10594 10594 10595 10597 10599 10601 10603 10606 10610 10612 10614 10616 10618 10621 10623
10686 10684 10681 10679 10677 10674 10672 10670 10668 10667 10666 10665 10665 10664 10664 10663 10662 10662 10661 10660 10659 10658 10657 10656 10655 10654 10652 10651 10650 10649 10648 10647 10646 10646 10645 10645 10645 10644 10644 10644 10645 10645 10645 10646 10646 10645 10644 10643 10641 10639 10637 10635 10633 10631 10629 10627 10625 10623 10621 10619 10616 10612 10610 10607 10605 10603 10601 10600 10598 10597 10595 10594 10594 10594 10593 10594 10595 10597 10599 10601 10604 10607 10609 10612 10614 10616 10619 10621
10686 10684 10682 10679 10677 10675 10673 10671 10670 10668 10667 10666 10665 10664 10663 10663 10662 10661 10660 10659 10657 10656 10655 10654 10653 10652 10650 10649 10647 10646 10645 10645 10644 10643 10643 10643 10643 10643 10643 10643 10643 10644 10644 10644 10644 10644 10643 10641 10640 10639 10637 10635 10633 10631 10629 10627 10624 10623 10622 10620 10618 10616 10613 10611 10608 10605 10603 10602 10601 10599 10598 10596 10595 10595 10594 10594 10594 10595 10597 10599 10601 10604 10607 10611 10613 10615 10618 10619
10686 10684 10682 10680 10678 10676 10674 10672 10670 10669 10667 10666 10665 10664 10663 10662 10661 10660 10659 10658 10657 10655 10654 10653 10652 10650 10648 10647 10645 10644 10643 10643 10642 10641 10641 10641 10641 10641 10641 10642 10642 10642 10643 10643 10642 10642 10641 10640 10639 10638 10636 10635 10633 10631 10629 10627 10624 10622 10621 10619 10618 10617 10615 10613 10611 10609 10607 10605 10603 10602 10601 10599 10598 10597 10596 10595 10595 10595 10596 10597 10599 10602 10605 10609 10612 10614 10617 10617
10686 10684 10682 10680 10678 10677 10675 10673 10671 10669 10668 10667 10666 10665 10663 10662 10661 10660 10659 10658 10657 10655 10653 10652 10650 10649 10647 10645 10644 10643 10642 10641 10640 10640 10639 10639 10639 10639 10639 10640 10641 10641 10641 10641 10641 10641 10640 10639 10638 10637 10636 10634 10633 10631 10629 10627 10625 10623 10620 10618 10617 10616 10615 10614 10612 10611 10610 10608 10606 10605 10604 10602 10600 10599 10597 10597 10596 10596 10596 10597 10598 10600 10603 10606 10610 10613 10615 10615
10686 10684 10682 10681 10679 10677 10676 10674 10672 10670 10668 10667 10666 10665 10664 10662 10661 10660 10659 10658 10656 10655 10653 10651 10650 10648 10646 10644 10642 10641 10640 10640 10639 10638 10638 10638 10638 10638 10638 10639 10639 10640 10640 10640 10640 10640 10639 10638 10637 10636 10635 10634 10632 10630 10629 10628 10626 10623 10621 10619 10617 10616 10614 10613 10613 10612 10611 10610 10609 10608 10607 10604 10602 10601 10599 10598 10597 10597 10597 10597 10598 10599 10601 10603 10606 10609 10611 10613
10686 10685 10683 10681 10679 10678 10676 10674 10673 10671 10669 10668 10667 10665 10664 10663 10661 10660 10659 10658 10656 10655 10653 10651 10649 10647 10645 10643 10641 10640 10639 10638 10638 10637 10637 10637 10637 10637 10637 10638 10638 10639 10639 10639 10639 10638 10637 10637 10636 10635 10634 10633 10631 10630 10629 10627 10626 10624 10622 10620 10618 10616 10614 10613 10613 10612 10612 10612 10611 10610 10609 10607 10604 10602 10601 10600 10599 10598 10598 10598 10598 10598 10600 10601 10603 10604 10606 10609
10687 10685 10683 10682 10680 10678 10676 10675 10673 10672 10670 10668 10667 10666 10664 10663 10662 10661 10659 10658 10657 10655 10653 10651 10649 10647 10645 10643 10642 10640 10639 10638 10638 10637 10637 10637 10637 10636 10637 10637 10638 10638 10638 10638 10637 10637 10636 10636 10635 10634 10633 10632 10631 10629 10628 10627 10626 10624 10622 10620 10619 10617 10616 10615 10614 10613 10612 10612 10612 10612 10610 10609 10606 10605 10604 10603 10601 10600 10599 10598 10598 10598 10599 10599 10600 10601 10602 10603
10687 10685 10684 10682 10681 10679 10677 10675 10674 10672 10671 10669 10668 10667 10665 10664 10663 10661 10660 10659 10657 10655 10653 10652 10650 10648 10646 10644 10642 10641 10639 10638 10638 10637 10637 10637 10637 10637 10637 10637 10637 10637 10637 10637 10636 10636 10635 10635 10634 10633 10632 10631 10630 10629 10628 10626 10625 10624 10622 10620 10619 10618 10617 10616 10615 10614 10612 10612 10611 10611 10611 10609 10608 10607 10606 10605 10604 10602 10601 10600 10599 10598 10598 10598 10598 10599 10599 10600
10687 10685 10684 10682 10681 10679 10678 10676 10674 10673 10671 10670 10669 10667 10666 10665 10663 10662 10661 10659 10658 10656 10654 10652 10651 10649 10647 10645 10643 10642 10641 10639 10638 10638 10637 10637 10637 10637 10637 10637 10637 10637 10637 10636 10636 10635 10635 10634 10633 10632 10631 10630 10629 10628 10627 10626 10625 10623 10622 10620 10619 10618 10617 10615 10614 10613 10613 10612 10611 10610 10610 10609 10608 10608 10607 10606 10605 10604 10603 10602 10601 10600 10599 10599 10599 10599 10599 10599
10687 10686 10684 10683 10681 10680 10678 10677 10675 10673 10672 10671 10669 10668 10667 10665 10664 10663 10662 10660 10658 10657 10655 10653 10652 10650 10648 10646 10645 10644 10642 10641 10640 10639 10638 10638 10638 10638 10637 10637 10637 10636 10636 10636 10635 10634 10634 10633 10633 10632 10631 10630 10628 10627 10626 10625 10624 10622 10621 10619 10618 10617 10616 10615 10614 10613 10612 10611 10610 10609 10608 10608 10607 10607 10607 10606 10605 10605 10604 10603 10602 10602 10601 10600 10600 10600 10599 10599
10687 10686 10685 10683 10682 10680 10679 10677 10676 10674 10673 10671 10670 10669 10667 10666 10665 10664 10662 10661 10659 10658 10656 10654 10653 10651 10650 10648 10647 10645 10644 10643 10641 10641 10640 10639 10638 10638 10638 10637 10637 10636 10636 10635 10635 10634 10633 10632 10632 10631 10630 10629 10628 10627 10626 10624 10623 10622 10620 10619 10617 10616 10616 10614 10613 10612 10611 10610 10609 10609 10608 10607 10606 10606 10606 10606 10606 10605 10604 10604 10603 10602 10602 10601 10600 10600 10600 10599
10687 10686 10685 10683 10682 10681 10679 10678 10677 10675 10673 10672 10670 10669 10668 10667 10666 10664 10663 10661 10660 10659 10657 10656 10654 10653 10652 10650 10649 10647 10646 10645 10644 10643 10642 10641 10640 10639 10638 10637 10637 10636 10635 10635 10634 10633 10633 10632 10631 10630 10630 10629 10628 10627 10626 10624 10623 10622 10621 10619 10618 10617 10616 10615 10613 10612 10611 10610 10609 10608 10608 10607 10606 10605 10605 10605 10605 10605 10604 10603 10603 10602 10601 10601 10600 10600 10599 10599
10686 10685 10685 10683 10682 10681 10680 10678 10677 10676 10674 10672 10671 10669 10668 10667 10666 10665 10663 10662 10661 10659 10658 10657 10656 10654 10653 10652 10650 10649 10648 10646 10645 10644 10643 10642 10641 10640 10639 10638 10637 10637 10636 10635 10634 10633 10633 10632 10631 10631 10630 10629 10628 10627 10626 10625 10624 10623 10622 10620 10619 10618 10616 10615 10613 10612 10611 10610 10609 10609 10608 10606 10606 10605 10604 10604 10604 10604 10603 10603 10602 10601 10601 10600 10600 10599 10599 10598
10685 10685 10684 10683 10682 10681 10680 10678 10677 10676 10674 10673 10671 10670 10668 10667 10666 10665 10663 10662 10661 10660 10659 10657 10656 10655 10654 10653 10652 10651 10650 10648 10647 10646 10645 10644 10643 10642 10641 10640 10639 10638 10637 10636 10635 10635 10634 10633 10633 10632 10631 10630 10629 10628 10627 10626 10625 10624 10622 10621 10620 10618 10617 10615 10614 10613 10612 10611 10610 10609 10608 10607 10605 10605 10604 10603 10603 10602 10602 10602 10601 10600 10599 10599 10599 10598 10598 10597
10684 10684 10683 10682 10681 10680 10679 10678 10677 10676 10674 10673 10672 10670 10669 10667 10666 10665 10663 10662 10661 10660 10659 10658 10657 10656 10655 10654 10653 10652 10651 10650 10648 10647 10646 10645 10644 10643 10642 10641 10640 10639 10638 10638 10637 10636 10636 10635 10634 10633 10632 10631 10630 10628 10627 10626 10625 10624 10623 10622 10620 10619 10618 10616 10615 10614 10613 10611 10610 10610 10609 10607 10605 10604 10603 10602 10601 10601 10600 10600 10599 10599 10598 10597 10597 10596 10596 10595
10683 10682 10682 10681 10680 10679 10679 10678 10677 10675 10674 10673 10672 10670 10669 10668 10666 10665 10664 10662 10661 10660 10659 10658 10657 10656 10655 10654 10654 10653 10652 10651 10650 10649 10648 10647 10645 10644 10643 10642 10641 10641 10640 10639 10638 10637 10637 10636 10635 10634 10633 10632 10630 10629 10628 10627 10626 10625 10623 10622 10621 10619 10618 10617 10616 10615 10613 10612 10610 10609 10608 10607 10606 10604 10603 10602 10600 10599 10598 10598 10597 10596 10596 10595 10594 10594 10594 10593
10682 10681 10680 10679 10679 10678 10677 10677 10676 10675 10674 10673 10671 10670 10669 10668 10666 10665 10664 10662 10661 10660 10659 10658 10657 10656 10655 10654 10653 10652 10652 10651 10650 10649 10648 10648 10647 10645 10644 10643 10642 10641 10640 10640 10639 10638 10637 10636 10635 10634 10633 10632 10631 10630 10629 10627 10626 10625 10624 10622 10621 10620 10618 10617 10616 10615 10613 10612 10610 10609 10608 10606 10605 10604 10603 10601 10600 10599 10597 10596 10595 10594 10593 10592 10592 10591 10591 10591
10680 10680 10679 10678 10677 10676 10676 10675 10675 10674 10673 10672 10671 10670 10668 10667 10666 10664 10663 10662 10660 10659 10658 10657 10656 10655 10655 10654 10653 10652 10651 10651 10650 10649 10648 10648 10647 10646 10645 10644 10643 10642 10641 10640 10639 10638 10637 10636 10635 10634 10633 10632 10631 10630 10629 10628 10626 10625 10624 10622 10621 10620 10619 10617 10616 10615 10614 10612 10610 10609 10607 10606 10605 10603 10602 10601 10599 10598 10596 10594 10593 10591 10590 10589 10588 10588 10588 10588
10678 10678 10677 10676 10675 10675 10674 10673 10673 10672 10671 10671 10670 10669 10667 10666 10665 10664 10662 10661 10660 10659 10657 10656 10655 10655 10654 10653 10652 10651 10650 10650 10649 10649 10648 10647 10646 10645 10645 10644 10643 10642 10641 10640 10639 10638 10637 10636 10635 10634 10633 10632 10630 10629 10628 10627 10626 10625 10624 10623 10621 10620 10619 10617 10616 10615 10614 10612 10610 10609 10607 10606 10604 10602 10601 10600 10598 10597 10595 10593 10592 10590 10588 10587 10585 10585 10584 10584
10676 10676 10675 10675 10674 10673 10672 10671 10671 10670 10670 10669 10668 10667 10666 10665 10664 10663 10662 10660 10659 10658 10657 10656 10655 10654 10653 10652 10651 10650 10649 10648 10648 10647 10646 10646 10645 10644 10643 10643 10642 10641 10640 10639 10638 10637 10636 10635 10634 10633 10632 10631 10630 10629 10628 10627 10625 10624 10623 10622 10621 10619 10618 10617 10615 10614 10613 10612 10611 10609 10607 10605 10604 10602 10600 10598 10597 10596 10594 10593 10591 10589 10588 10586 10584 10582 10582 10581
10674 10674 10673 10673 10672 10671 10670 10670 10669 10668 10668 10667 10667 10666 10665 10664 10663 10662 10661 10660 10659 10657 10656 10655 10654 10653 10652 10651 10649 10648 10647 10647 10646 10645 10645 10644 10643 10643 10642 10642 10641 10640 10639 10638 10637 10636 10635 10634 10633 10632 10631 10630 10629 10627 10626 10626 10625 10624 10622 10620 10619 10618 10617 10616 10614 10613 10612 10612 10610 10609 10607 10605 10603 10602 10600 10598 10596 10595 10594 10592 10590 10589 10587 10585 10583 10581 10580 10579
10671 10671 10671 10670 10670 10669 10668 10668 10667 10667 10666 10665 10665 10664 10664 10663 10662 10661 10659 10659 10658 10657 10655 10654 10653 10652 10651 10650 10648 10647 10646 10645 10644 10644 10643 10642 10642 10641 10640 10640 10639 10638 10637 10636 10635 10634 10633 10632 10631 10630 10629 10628 10627 10625 10624 10623 10623 10623 10621 10619 10617 10616 10616 10615 10613 10612 10610 10610 10609 10608 10606 10605 10603 10602 10600 10598 10596 10595 10593 10591 10589 10587 10586 10584 10582 10580 10579 10578
10669 10669 10668 10668 10667 10667 10666 10666 10665 10664 10664 10663 10663 10662 10662 10661 10660 10659 10658 10657 10656 10655 10654 10653 10651 10650 10649 10648 10647 10646 10644 10643 10642 10642 10641 10640 10639 10639 10638 10637 10636 10636 10635 10634 10633 10631 10631 10630 10628 10627 10627 10626 10625 10623 10621 10620 10620 10620 10620 10618 10616 10614 10613 10613 10612 10610 10608 10607 10607 10606 10604 10603 10602 10600 10599 10597 10595 10594 10592 10590 10588 10586 10584 10582 10581 10579 10578 10576
10666 10666 10666 10665 10665 10664 10663 10663 10662 10662 10662 10661 10661 10660 10659 10659 10658 10657 10656 10655 10654 10653 10652 10651 10650 10649 10647 10646 10645 10644 10642 10641 10640 10639 10638 10637 10637 10636 10635 10634 10634 10633 10632 10631 10630 10629 10628 10627 10626 10624 10623 10623 10623 10621 10619 10617 10617 10617 10616 10615 10614 10612 10611 10610 10609 10608 10606 10605 10604 10603 10602 10601 10600 10598 10597 10596 10594 10592 10590 10589 10587 10585 10583 10582 10580 10578 10577 10575
10664 10663 10663 10662 10662 10661 10660 10660 10660 10659 10659 10658 10658 10658 10657 10656 10656 10655 10654 10653 10652 10651 10649 10648 10648 10647 10645 10644 10643 10642 10640 10639 10638 10637 10635 10634 10633 10632 10631 10631 10630 10630 10629 10628 10626 10625 10625 10624 10623 10622 10620 10619 10619 10619 10616 10614 10613 10613 10612 10611 10610 10610 10609 10607 10607 10606 10604 10602 10601 10600 10599 10598 10597 10596 10595 10594 10592 10590 10589 10587 10585 10583 10582 10580 10579 10577 10576 10574
10661 10660 10659 10659 10659 10658 10657 10657 10656 10656 10656 10655 10655 10654 10654 10654 10653 10652 10651 10650 10649 10648 10647 10646 10645 10644 10643 10642 10641 10640 10638 10637 10636 10634 10633 10631 10630 10629 10628 10627 10626 10626 10625 10624 10623 10621 10621 10620 10620 10619 10617 10615 10615 10615 10614 10612 10611 10610 10608 10606 10606 10607 10606 10605 10604 10603 10601 10599 10598 10597 10597 10596 10594 10593 10592 10591 10590 10588 10587 10585 10583 10581 10579 10578 10577 10575 10574 10572